FDX421 GCRR-LEZL

Flight info

Callsign FDX421
Flight time 1h 33m
Altitude 34000
Route KORAL UG5 SONSO DCT NIRAL UN871 ADUBI DCT VJF
Aircraft B752/M-SDE2E3FGHIJ3J4J7RWXY/LB1

Departure

Time 2026-04-23 15:28
Airport César Manrique-Lanzarote Airport (GCRR)

Arrival

Time 2026-04-23 17:01
Airport Seville Airport (LEZL)
Time Latitude Longitude Altitude Speed Heading
2026-04-23 14:42 28.95424 -13.60308 83 ft 0 kts 297°
2026-04-23 15:19 28.95433 -13.60328 86 ft 0 kts 291°
2026-04-23 15:20 28.95433 -13.60329 86 ft 1 kts 287°
2026-04-23 15:20 28.95429 -13.60355 88 ft 4 kts 241°
2026-04-23 15:20 28.95397 -13.60386 90 ft 6 kts 210°
2026-04-23 15:20 28.95353 -13.60412 92 ft 8 kts 206°
2026-04-23 15:21 28.95302 -13.60443 93 ft 7 kts 207°
2026-04-23 15:21 28.95240 -13.60479 93 ft 13 kts 206°
2026-04-23 15:21 28.95166 -13.60518 92 ft 7 kts 182°
2026-04-23 15:21 28.95123 -13.60470 86 ft 11 kts 119°
2026-04-23 15:22 28.95076 -13.60434 80 ft 8 kts 189°
2026-04-23 15:22 28.95014 -13.60459 77 ft 11 kts 205°
2026-04-23 15:22 28.94940 -13.60503 76 ft 11 kts 209°
2026-04-23 15:22 28.94874 -13.60541 76 ft 9 kts 205°
2026-04-23 15:23 28.94806 -13.60579 74 ft 14 kts 207°
2026-04-23 15:23 28.94684 -13.60650 65 ft 24 kts 207°
2026-04-23 15:23 28.94520 -13.60744 59 ft 26 kts 208°
2026-04-23 15:23 28.94361 -13.60836 60 ft 24 kts 207°
2026-04-23 15:24 28.94197 -13.60930 48 ft 27 kts 207°
2026-04-23 15:24 28.94025 -13.61030 47 ft 26 kts 206°
2026-04-23 15:24 28.93879 -13.61116 56 ft 20 kts 207°
2026-04-23 15:24 28.93815 -13.61153 56 ft 3 kts 208°
2026-04-23 15:25 28.93788 -13.61170 56 ft 4 kts 207°
2026-04-23 15:25 28.93723 -13.61207 55 ft 16 kts 206°
2026-04-23 15:25 28.93681 -13.61221 54 ft 0 kts 171°
2026-04-23 15:25 28.93673 -13.61220 53 ft 0 kts 171°
2026-04-23 15:26 28.93653 -13.61204 52 ft 8 kts 134°
2026-04-23 15:26 28.93618 -13.61141 48 ft 10 kts 116°
2026-04-23 15:26 28.93621 -13.61067 47 ft 9 kts 45°
2026-04-23 15:26 28.93641 -13.61050 47 ft 0 kts 33°
2026-04-23 15:27 28.93649 -13.61044 47 ft 0 kts 34°
2026-04-23 15:27 28.93650 -13.61043 47 ft 1 kts 34°
2026-04-23 15:27 28.93781 -13.60963 46 ft 54 kts 26°
2026-04-23 15:28 28.94356 -13.60633 51 ft 127 kts 26°
2026-04-23 15:28 28.95287 -13.60083 354 ft 161 kts 27°
2026-04-23 15:28 28.96188 -13.59483 1291 ft 148 kts 34°
2026-04-23 15:28 28.96974 -13.58794 1697 ft 148 kts 37°
2026-04-23 15:29 28.97808 -13.57995 1909 ft 158 kts 37°
2026-04-23 15:29 28.98681 -13.57229 2243 ft 162 kts 33°
2026-04-23 15:29 28.99642 -13.56454 2439 ft 176 kts 32°
2026-04-23 15:29 29.00661 -13.55536 2561 ft 202 kts 45°
2026-04-23 15:30 29.01605 -13.54233 2829 ft 222 kts 47°
2026-04-23 15:30 29.02636 -13.52809 3214 ft 239 kts 47°
2026-04-23 15:30 29.03737 -13.51283 3617 ft 257 kts 47°
2026-04-23 15:30 29.04890 -13.49679 4201 ft 266 kts 48°
2026-04-23 15:31 29.06067 -13.48037 4981 ft 269 kts 48°
2026-04-23 15:31 29.07258 -13.46375 5672 ft 274 kts 47°
2026-04-23 15:31 29.08466 -13.44690 6381 ft 278 kts 48°
2026-04-23 15:31 29.09837 -13.43172 7013 ft 279 kts 28°
2026-04-23 15:32 29.12176 -13.41832 7901 ft 284 kts 22°
2026-04-23 15:32 29.13369 -13.41165 8338 ft 288 kts 22°
2026-04-23 15:32 29.15178 -13.40169 8956 ft 293 kts 22°
2026-04-23 15:32 29.17046 -13.39148 9602 ft 298 kts 21°
2026-04-23 15:33 29.18912 -13.38133 10217 ft 303 kts 21°
2026-04-23 15:33 29.20884 -13.37064 10536 ft 320 kts 21°
2026-04-23 15:33 29.22965 -13.35938 10758 ft 340 kts 22°
2026-04-23 15:33 29.25167 -13.34738 11089 ft 356 kts 24°
2026-04-23 15:34 29.27241 -13.33104 11721 ft 365 kts 41°
2026-04-23 15:34 29.28883 -13.30856 12362 ft 371 kts 53°
2026-04-23 15:34 29.30378 -13.28436 12880 ft 378 kts 53°
2026-04-23 15:34 29.31897 -13.25979 13520 ft 381 kts 53°
2026-04-23 15:35 29.33441 -13.23464 14055 ft 390 kts 53°
2026-04-23 15:35 29.34980 -13.20946 14814 ft 389 kts 54°
2026-04-23 15:35 29.36559 -13.18359 15275 ft 395 kts 54°
2026-04-23 15:35 29.38111 -13.15813 15896 ft 396 kts 54°
2026-04-23 15:36 29.39710 -13.13188 16320 ft 402 kts 54°
2026-04-23 15:36 29.41314 -13.10550 16934 ft 403 kts 54°
2026-04-23 15:36 29.42923 -13.07904 17385 ft 407 kts 54°
2026-04-23 15:36 29.44553 -13.05220 17821 ft 412 kts 54°
2026-04-23 15:37 29.46196 -13.02516 18394 ft 413 kts 53°
2026-04-23 15:37 29.47850 -12.99789 18775 ft 419 kts 53°
2026-04-23 15:37 29.49509 -12.97050 19285 ft 421 kts 53°
2026-04-23 15:37 29.51199 -12.94259 19665 ft 427 kts 53°
2026-04-23 15:38 29.52894 -12.91460 20159 ft 429 kts 53°
2026-04-23 15:38 29.54598 -12.88643 20598 ft 433 kts 52°
2026-04-23 15:38 29.56318 -12.85797 21056 ft 436 kts 52°
2026-04-23 15:38 29.58062 -12.82911 21479 ft 440 kts 52°
2026-04-23 15:39 29.59819 -12.79998 21916 ft 444 kts 52°
2026-04-23 15:39 29.61576 -12.77085 22383 ft 445 kts 52°
2026-04-23 15:39 29.63353 -12.74138 22760 ft 450 kts 52°
2026-04-23 15:39 29.65144 -12.71166 23219 ft 452 kts 52°
2026-04-23 15:40 29.66947 -12.68172 23592 ft 456 kts 52°
2026-04-23 15:40 29.68737 -12.65194 24022 ft 459 kts 52°
2026-04-23 15:40 29.70563 -12.62157 24378 ft 463 kts 52°
2026-04-23 15:40 29.72392 -12.59109 24843 ft 464 kts 52°
2026-04-23 15:41 29.74229 -12.56030 25160 ft 468 kts 52°
2026-04-23 15:41 29.76046 -12.52959 25597 ft 470 kts 52°
2026-04-23 15:41 29.77889 -12.49848 25983 ft 472 kts 52°
2026-04-23 15:41 29.79770 -12.46667 26298 ft 476 kts 52°
2026-04-23 15:42 29.81610 -12.43554 26692 ft 478 kts 52°
2026-04-23 15:42 29.83499 -12.40357 27057 ft 480 kts 52°
2026-04-23 15:42 29.85362 -12.37200 27392 ft 484 kts 51°
2026-04-23 15:42 29.87274 -12.33959 27716 ft 486 kts 52°
2026-04-23 15:43 29.89163 -12.30752 28044 ft 489 kts 52°
2026-04-23 15:43 29.91084 -12.27488 28399 ft 490 kts 52°
2026-04-23 15:43 29.93017 -12.24204 28621 ft 495 kts 52°
2026-04-23 15:43 29.94935 -12.20942 28989 ft 496 kts 52°
2026-04-23 15:44 29.96858 -12.17663 29703 ft 486 kts 52°
2026-04-23 15:44 29.98726 -12.14475 30489 ft 477 kts 52°
2026-04-23 15:44 30.00630 -12.11332 30723 ft 477 kts 47°
2026-04-23 15:44 30.02825 -12.08524 31027 ft 472 kts 39°
2026-04-23 15:45 30.05160 -12.05886 31447 ft 469 kts 39°
2026-04-23 15:45 30.07500 -12.03239 31792 ft 469 kts 38°
2026-04-23 15:45 30.09843 -12.00602 32093 ft 469 kts 39°
2026-04-23 15:46 30.14592 -11.95276 32118 ft 484 kts 39°
2026-04-23 15:46 30.19509 -11.89762 32135 ft 499 kts 39°
2026-04-23 15:47 30.24558 -11.84091 32159 ft 513 kts 39°
2026-04-23 15:47 30.29718 -11.78287 32447 ft 519 kts 39°
2026-04-23 15:47 30.32295 -11.75382 32815 ft 517 kts 39°
2026-04-23 15:48 30.34882 -11.72467 32968 ft 520 kts 39°
2026-04-23 15:48 30.37487 -11.69529 33316 ft 517 kts 39°
2026-04-23 15:48 30.40081 -11.66599 33527 ft 518 kts 40°
2026-04-23 15:48 30.42642 -11.63707 33733 ft 518 kts 40°
2026-04-23 15:49 30.45216 -11.60796 33912 ft 517 kts 40°
2026-04-23 15:49 30.47831 -11.57838 34013 ft 518 kts 40°
2026-04-23 15:49 30.50414 -11.54913 34034 ft 520 kts 40°
2026-04-23 15:50 30.55590 -11.49045 34036 ft 516 kts 40°
2026-04-23 15:50 30.60697 -11.43247 34037 ft 514 kts 40°
2026-04-23 15:51 30.65827 -11.37414 34039 ft 517 kts 40°
2026-04-23 15:51 30.70951 -11.31579 34024 ft 515 kts 40°
2026-04-23 15:52 30.76059 -11.25751 34028 ft 517 kts 41°
2026-04-23 15:52 30.81211 -11.19863 34028 ft 517 kts 41°
2026-04-23 15:53 30.86298 -11.14042 34027 ft 515 kts 41°
2026-04-23 15:53 30.91437 -11.08153 34030 ft 517 kts 41°
2026-04-23 15:54 30.96542 -11.02292 34031 ft 516 kts 41°
2026-04-23 15:54 31.01655 -10.96414 34035 ft 516 kts 41°
2026-04-23 15:55 31.06737 -10.90560 34035 ft 517 kts 41°
2026-04-23 15:55 31.11862 -10.84650 34031 ft 519 kts 41°
2026-04-23 15:56 31.16971 -10.78746 34028 ft 516 kts 41°
2026-04-23 15:56 31.22094 -10.72818 34033 ft 516 kts 41°
2026-04-23 15:57 31.27168 -10.66937 34037 ft 516 kts 42°
2026-04-23 15:57 31.32280 -10.61002 34033 ft 516 kts 42°
2026-04-23 15:58 31.37390 -10.55061 34033 ft 517 kts 42°
2026-04-23 15:58 31.42463 -10.49151 34036 ft 517 kts 42°
2026-04-23 15:59 31.47583 -10.43179 34036 ft 517 kts 42°
2026-04-23 15:59 31.52710 -10.37188 34036 ft 517 kts 42°
2026-04-23 16:00 31.57778 -10.31257 34026 ft 518 kts 43°
2026-04-23 16:00 31.62882 -10.25272 34026 ft 517 kts 43°
2026-04-23 16:01 31.67975 -10.19293 34026 ft 518 kts 43°
2026-04-23 16:01 31.73043 -10.13331 34025 ft 516 kts 43°
2026-04-23 16:02 31.78125 -10.07345 34027 ft 515 kts 43°
2026-04-23 16:02 31.83182 -10.01378 34026 ft 516 kts 43°
2026-04-23 16:03 31.88260 -9.95375 34028 ft 515 kts 44°
2026-04-23 16:03 31.93309 -9.89395 34023 ft 516 kts 44°
2026-04-23 16:04 31.98356 -9.83410 34022 ft 515 kts 44°
2026-04-23 16:04 32.03387 -9.77435 34025 ft 516 kts 44°
2026-04-23 16:05 32.08451 -9.71409 34022 ft 515 kts 44°
2026-04-23 16:05 32.13464 -9.65435 34016 ft 514 kts 44°
2026-04-23 16:06 32.18506 -9.59416 34018 ft 513 kts 44°
2026-04-23 16:06 32.23537 -9.53399 34021 ft 513 kts 44°
2026-04-23 16:07 32.28528 -9.47421 34019 ft 514 kts 44°
2026-04-23 16:07 32.33557 -9.41386 34019 ft 513 kts 44°
2026-04-23 16:08 32.38551 -9.35385 34025 ft 513 kts 44°
2026-04-23 16:08 32.43554 -9.29362 34015 ft 513 kts 45°
2026-04-23 16:09 32.48558 -9.23329 34015 ft 512 kts 45°
2026-04-23 16:09 32.53553 -9.17294 34021 ft 513 kts 45°
2026-04-23 16:10 32.58527 -9.11275 34023 ft 512 kts 45°
2026-04-23 16:10 32.63520 -9.05225 34024 ft 511 kts 45°
2026-04-23 16:11 32.68491 -8.99189 34017 ft 510 kts 45°
2026-04-23 16:11 32.73438 -8.93174 34013 ft 510 kts 45°
2026-04-23 16:12 32.78401 -8.87127 34015 ft 511 kts 45°
2026-04-23 16:12 32.83369 -8.81064 34016 ft 511 kts 45°
2026-04-23 16:13 32.88307 -8.75029 34012 ft 508 kts 45°
2026-04-23 16:13 32.95723 -8.65945 34011 ft 510 kts 45°
2026-04-23 16:14 33.00659 -8.59885 34009 ft 507 kts 45°
2026-04-23 16:14 33.05577 -8.53838 34011 ft 509 kts 45°
2026-04-23 16:15 33.10508 -8.47764 34009 ft 508 kts 45°
2026-04-23 16:15 33.15413 -8.41712 34002 ft 507 kts 45°
2026-04-23 16:16 33.20549 -8.35967 34012 ft 504 kts 34°
2026-04-23 16:16 33.26461 -8.31442 33997 ft 505 kts 31°
2026-04-23 16:17 33.32417 -8.26951 33998 ft 503 kts 31°
2026-04-23 16:17 33.38310 -8.22504 34000 ft 504 kts 31°
2026-04-23 16:18 33.44245 -8.18020 34002 ft 504 kts 31°
2026-04-23 16:18 33.50168 -8.13537 33999 ft 503 kts 31°
2026-04-23 16:19 33.56074 -8.09060 34003 ft 504 kts 31°
2026-04-23 16:19 33.62021 -8.04546 34004 ft 503 kts 31°
2026-04-23 16:20 33.67910 -8.00068 34005 ft 502 kts 31°
2026-04-23 16:20 33.73787 -7.95589 34009 ft 502 kts 31°
2026-04-23 16:21 33.79701 -7.91077 34014 ft 502 kts 31°
2026-04-23 16:21 33.85570 -7.86592 34011 ft 499 kts 31°
2026-04-23 16:22 33.91415 -7.82117 34014 ft 499 kts 31°
2026-04-23 16:22 33.97295 -7.77608 34014 ft 500 kts 31°
2026-04-23 16:23 34.03113 -7.73139 34015 ft 500 kts 31°
2026-04-23 16:23 34.08973 -7.68631 34015 ft 500 kts 32°
2026-04-23 16:24 34.14871 -7.64086 34008 ft 500 kts 32°
2026-04-23 16:24 34.20687 -7.59597 34014 ft 498 kts 32°
2026-04-23 16:25 34.26526 -7.55081 34016 ft 499 kts 32°
2026-04-23 16:25 34.32362 -7.50561 34012 ft 497 kts 32°
2026-04-23 16:26 34.38176 -7.46051 34018 ft 497 kts 32°
2026-04-23 16:26 34.44024 -7.41506 34017 ft 497 kts 32°
2026-04-23 16:27 34.49837 -7.36981 34017 ft 498 kts 32°
2026-04-23 16:27 34.55640 -7.32457 34013 ft 497 kts 32°
2026-04-23 16:28 34.61459 -7.27913 34014 ft 497 kts 32°
2026-04-23 16:28 34.67268 -7.23367 34011 ft 497 kts 32°
2026-04-23 16:29 34.73083 -7.18809 34017 ft 498 kts 32°
2026-04-23 16:29 34.78922 -7.14226 34014 ft 497 kts 32°
2026-04-23 16:30 34.84710 -7.09675 34013 ft 496 kts 32°
2026-04-23 16:30 34.90503 -7.05112 34010 ft 496 kts 32°
2026-04-23 16:31 34.96255 -7.00572 34013 ft 494 kts 32°
2026-04-23 16:31 35.02029 -6.96010 34011 ft 495 kts 32°
2026-04-23 16:32 35.07806 -6.91436 34012 ft 495 kts 33°
2026-04-23 16:32 35.13576 -6.86860 34003 ft 495 kts 33°
2026-04-23 16:33 35.19375 -6.82252 34004 ft 495 kts 33°
2026-04-23 16:33 35.25121 -6.77679 34012 ft 495 kts 33°
2026-04-23 16:34 35.30916 -6.73060 33997 ft 494 kts 33°
2026-04-23 16:34 35.36676 -6.68516 34000 ft 494 kts 32°
2026-04-23 16:35 35.42502 -6.64040 34002 ft 494 kts 32°
2026-04-23 16:35 35.48326 -6.59553 33991 ft 493 kts 32°
2026-04-23 16:36 35.54094 -6.55101 33994 ft 493 kts 32°
2026-04-23 16:36 35.59925 -6.50591 33988 ft 492 kts 32°
2026-04-23 16:37 35.62772 -6.48387 33982 ft 481 kts 32°
2026-04-23 16:37 35.65573 -6.46215 33605 ft 470 kts 32°
2026-04-23 16:37 35.68300 -6.44099 33104 ft 467 kts 32°
2026-04-23 16:37 35.71064 -6.41954 32606 ft 465 kts 32°
2026-04-23 16:38 35.73772 -6.39849 32106 ft 460 kts 32°
2026-04-23 16:38 35.76481 -6.37742 31554 ft 471 kts 32°
2026-04-23 16:38 35.79290 -6.35556 30942 ft 491 kts 32°
2026-04-23 16:38 35.82241 -6.33258 30309 ft 498 kts 33°
2026-04-23 16:39 35.85095 -6.30932 29665 ft 494 kts 36°
2026-04-23 16:39 35.87901 -6.28521 29014 ft 491 kts 36°
2026-04-23 16:39 35.90699 -6.26129 28366 ft 489 kts 36°
2026-04-23 16:39 35.93492 -6.23738 27718 ft 486 kts 36°
2026-04-23 16:40 35.96246 -6.21379 27078 ft 484 kts 36°
2026-04-23 16:40 35.98993 -6.19026 26436 ft 481 kts 36°
2026-04-23 16:40 36.01728 -6.16681 25796 ft 478 kts 36°
2026-04-23 16:40 36.04455 -6.14341 25154 ft 475 kts 36°
2026-04-23 16:41 36.07172 -6.12008 24515 ft 472 kts 36°
2026-04-23 16:41 36.09856 -6.09700 23883 ft 469 kts 36°
2026-04-23 16:41 36.12526 -6.07404 23237 ft 466 kts 36°
2026-04-23 16:41 36.15168 -6.05130 22600 ft 463 kts 36°
2026-04-23 16:42 36.17834 -6.02833 21951 ft 459 kts 36°
2026-04-23 16:42 36.20421 -6.00602 21321 ft 456 kts 36°
2026-04-23 16:42 36.23104 -5.98475 20679 ft 453 kts 29°
2026-04-23 16:42 36.25967 -5.96929 20062 ft 449 kts 19°
2026-04-23 16:43 36.28932 -5.95756 19448 ft 446 kts 18°
2026-04-23 16:43 36.31903 -5.94599 18807 ft 442 kts 18°
2026-04-23 16:43 36.34805 -5.93486 18181 ft 439 kts 17°
2026-04-23 16:43 36.37732 -5.92370 17560 ft 436 kts 17°
2026-04-23 16:44 36.40629 -5.91270 16912 ft 432 kts 17°
2026-04-23 16:44 36.43497 -5.90182 16280 ft 429 kts 17°
2026-04-23 16:44 36.46341 -5.89104 15650 ft 425 kts 17°
2026-04-23 16:44 36.49132 -5.88046 15033 ft 422 kts 18°
2026-04-23 16:45 36.51957 -5.86975 14402 ft 417 kts 18°
2026-04-23 16:45 36.54638 -5.85958 13714 ft 395 kts 17°
2026-04-23 16:45 36.57248 -5.84966 13138 ft 384 kts 17°
2026-04-23 16:45 36.59784 -5.84002 12514 ft 381 kts 17°
2026-04-23 16:46 36.62317 -5.83038 11975 ft 379 kts 17°
2026-04-23 16:46 36.64801 -5.82094 11489 ft 375 kts 17°
2026-04-23 16:46 36.67295 -5.81144 10984 ft 372 kts 17°
2026-04-23 16:46 36.69745 -5.80211 10487 ft 368 kts 17°
2026-04-23 16:47 36.72219 -5.79268 10007 ft 365 kts 17°
2026-04-23 16:47 36.74645 -5.78343 9520 ft 362 kts 17°
2026-04-23 16:47 36.77035 -5.77432 9022 ft 359 kts 17°
2026-04-23 16:47 36.79436 -5.76515 8545 ft 357 kts 17°
2026-04-23 16:48 36.81770 -5.75623 8002 ft 349 kts 17°
2026-04-23 16:48 36.84017 -5.74765 7651 ft 323 kts 18°
2026-04-23 16:48 36.86105 -5.73967 7380 ft 301 kts 18°
2026-04-23 16:48 36.88073 -5.73213 7185 ft 292 kts 18°
2026-04-23 16:49 36.89997 -5.72475 6939 ft 287 kts 18°
2026-04-23 16:49 36.91889 -5.71750 6691 ft 283 kts 18°
2026-04-23 16:49 36.93758 -5.71033 6451 ft 279 kts 19°
2026-04-23 16:49 36.95598 -5.70328 6202 ft 275 kts 19°
2026-04-23 16:50 36.97424 -5.69627 5950 ft 271 kts 19°
2026-04-23 16:50 36.99232 -5.68931 5689 ft 268 kts 19°
2026-04-23 16:50 37.00996 -5.68253 5443 ft 264 kts 19°
2026-04-23 16:50 37.02739 -5.67583 5201 ft 261 kts 18°
2026-04-23 16:51 37.04475 -5.66915 4951 ft 260 kts 18°
2026-04-23 16:51 37.06220 -5.66244 4713 ft 259 kts 18°
2026-04-23 16:51 37.07936 -5.65583 4474 ft 259 kts 18°
2026-04-23 16:51 37.09655 -5.64921 4234 ft 258 kts 18°
2026-04-23 16:52 37.11373 -5.64259 3989 ft 257 kts 17°
2026-04-23 16:52 37.13077 -5.63602 3740 ft 256 kts 17°
2026-04-23 16:52 37.14781 -5.62945 3495 ft 255 kts 17°
2026-04-23 16:52 37.16496 -5.62283 3247 ft 254 kts 17°
2026-04-23 16:53 37.18222 -5.61871 3035 ft 251 kts
2026-04-23 16:53 37.19918 -5.61757 2998 ft 241 kts
2026-04-23 16:53 37.21600 -5.61625 3002 ft 238 kts
2026-04-23 16:53 37.23251 -5.61505 3006 ft 241 kts
2026-04-23 16:54 37.24935 -5.61385 3000 ft 242 kts
2026-04-23 16:54 37.26622 -5.61267 2999 ft 241 kts
2026-04-23 16:54 37.28303 -5.61150 3001 ft 241 kts
2026-04-23 16:54 37.29990 -5.61034 3001 ft 242 kts
2026-04-23 16:55 37.31676 -5.60917 3002 ft 242 kts
2026-04-23 16:55 37.33356 -5.60801 3002 ft 242 kts
2026-04-23 16:55 37.35042 -5.60685 3001 ft 242 kts
2026-04-23 16:55 37.36734 -5.60568 2998 ft 241 kts
2026-04-23 16:56 37.38408 -5.60453 2999 ft 241 kts
2026-04-23 16:56 37.40041 -5.60769 2988 ft 239 kts 332°
2026-04-23 16:56 37.41351 -5.62076 2804 ft 241 kts 306°
2026-04-23 16:56 37.41997 -5.63950 2599 ft 232 kts 270°
2026-04-23 16:57 37.41937 -5.65922 2342 ft 220 kts 265°
2026-04-23 16:57 37.41886 -5.67780 2136 ft 207 kts 267°
2026-04-23 16:57 37.41861 -5.69555 1882 ft 198 kts 267°
2026-04-23 16:57 37.41845 -5.71219 1615 ft 183 kts 267°
2026-04-23 16:58 37.41836 -5.72754 1511 ft 172 kts 268°
2026-04-23 16:58 37.41828 -5.74258 1532 ft 165 kts 268°
2026-04-23 16:58 37.41827 -5.75592 1467 ft 139 kts 268°
2026-04-23 16:58 37.41825 -5.76735 1476 ft 129 kts 267°
2026-04-23 16:59 37.41819 -5.77913 1534 ft 139 kts 268°
2026-04-23 16:59 37.41817 -5.79150 1371 ft 141 kts 268°
2026-04-23 16:59 37.41816 -5.80364 1181 ft 134 kts 267°
2026-04-23 16:59 37.41813 -5.81534 1023 ft 135 kts 268°
2026-04-23 17:00 37.41811 -5.82721 844 ft 135 kts 266°
2026-04-23 17:00 37.41809 -5.83879 732 ft 132 kts 267°
2026-04-23 17:00 37.41835 -5.85107 565 ft 140 kts 265°
2026-04-23 17:00 37.41804 -5.86265 402 ft 128 kts 268°
2026-04-23 17:01 37.41799 -5.87371 150 ft 122 kts 264°
2026-04-23 17:01 37.41792 -5.88344 99 ft 87 kts 267°
2026-04-23 17:01 37.41794 -5.88913 96 ft 49 kts 269°
2026-04-23 17:01 37.41795 -5.89124 96 ft 10 kts 277°
2026-04-23 17:02 37.41814 -5.89202 96 ft 8 kts 295°
2026-04-23 17:02 37.41845 -5.89258 96 ft 7 kts 320°
2026-04-23 17:02 37.41888 -5.89291 95 ft 8 kts 332°
2026-04-23 17:02 37.41947 -5.89330 93 ft 10 kts 330°
2026-04-23 17:03 37.42004 -5.89386 92 ft 10 kts 315°
2026-04-23 17:03 37.42063 -5.89460 91 ft 12 kts 314°
2026-04-23 17:03 37.42119 -5.89533 93 ft 11 kts 312°
2026-04-23 17:03 37.42180 -5.89613 96 ft 13 kts 314°
2026-04-23 17:04 37.42247 -5.89700 98 ft 12 kts 308°
2026-04-23 17:04 37.42242 -5.89781 100 ft 8 kts 232°
2026-04-23 17:04 37.42208 -5.89828 100 ft 6 kts 225°
2026-04-23 17:04 37.42174 -5.89873 99 ft 7 kts 225°
2026-04-23 17:05 37.42134 -5.89923 97 ft 8 kts 223°
2026-04-23 17:05 37.42091 -5.89979 95 ft 8 kts 223°
2026-04-23 17:05 37.42059 -5.90041 93 ft 8 kts 254°
2026-04-23 17:05 37.42051 -5.90118 92 ft 10 kts 270°
2026-04-23 17:06 37.42051 -5.90212 90 ft 1 kts 270°
2026-04-23 17:06 37.42052 -5.90248 89 ft 5 kts 273°
2026-04-23 17:06 37.42057 -5.90276 89 ft 0 kts 314°
2026-04-23 17:06 37.42063 -5.90278 89 ft 1 kts 354°
2026-04-23 17:07 37.42094 -5.90251 90 ft 6 kts 38°
2026-04-23 17:07 37.42103 -5.90243 90 ft 0 kts 36°